Find Starlink 31040

NORAD ID: 58722 Int'l Des: 2024-002 Owner: SPXS Country: US Constellation: starlink operational
LEOCIRCULAR

当前视图

正在加载3D地球...

About Starlink 31040

Starlink 31040 (NORAD 58722) is a starlink constellation satellite (v2 mini) launched Jan 3, 2024 by SPXS of US. It operates in LEO, CIRCULAR orbit with a mass of 730.00 kg.

即将过境

Passes for default location (London). Set your location on the main map for personalized predictions.

高度历史

Loading altitude history...

两行轨道根数

1 58722U 24002T 26262.93438180 .00003058 00000-0 10161-3 0 9994
2 58722 53.1601 44.2414 0000834 72.2317 287.8777 15.34400238151809
Epoch: Sep 19, 2026 • Age: 26 hours

当前状态

高度 465.6 km
远地点 / 近地点 N/A
速度 7.63 km/s
星下点 -9.54°S, 137.54°W
发射日期 Jan 3, 2024
运行时间 2.7 years
类型 internet

技术详情

分类 Payload
质量 730.00 kg
干质量 700.00 kg
长度 0.30 m
跨度 29.00 m
形状 ? Box + pan
制造商 SPXS
平台类型 Starlink V2M
阶段状态 In Orbit
所有者/国家 SPXS/US

Most Searched